TYA207 UNKL-UOOO

Flight info

Callsign TYA207
Flight time N/A
Altitude 38000
Route UNKL/29 K0852F340 BASE2F BASEL B938 SURIP B247 WD A228 PTG G490 OLURI OLUR1F UOOO/19
Aircraft B738/M-S/S

Departure

Time 2026-05-05 17:55
Airport Krasnoyarsk International Airport (UNKL)

Arrival

Time N/A
Airport Alykel International Airport (UOOO)
Time Latitude Longitude Altitude Speed Heading
2026-05-05 17:41 56.18063 92.47601 946 ft 0 kts 20°
2026-05-05 17:48 56.18068 92.47604 947 ft 3 kts 20°
2026-05-05 17:49 56.18095 92.47649 947 ft 8 kts 79°
2026-05-05 17:49 56.18070 92.47793 947 ft 15 kts 112°
2026-05-05 17:49 56.18019 92.48016 947 ft 21 kts 111°
2026-05-05 17:49 56.17948 92.48236 947 ft 20 kts 144°
2026-05-05 17:50 56.17866 92.48441 946 ft 19 kts 148°
2026-05-05 17:50 56.17739 92.48422 947 ft 18 kts 137°
2026-05-05 17:50 56.17681 92.48639 947 ft 21 kts 113°
2026-05-05 17:50 56.17607 92.48937 946 ft 30 kts 112°
2026-05-05 17:51 56.17516 92.49329 947 ft 38 kts 112°
2026-05-05 17:51 56.17400 92.49813 947 ft 45 kts 112°
2026-05-05 17:51 56.17278 92.50333 947 ft 44 kts 112°
2026-05-05 17:51 56.17154 92.50851 947 ft 46 kts 111°
2026-05-05 17:52 56.17026 92.51390 947 ft 45 kts 113°
2026-05-05 17:52 56.16906 92.51884 947 ft 36 kts 118°
2026-05-05 17:52 56.16769 92.52059 946 ft 0 kts 172°
2026-05-05 17:53 56.16765 92.52061 946 ft 3 kts 172°
2026-05-05 17:53 56.16711 92.52065 946 ft 12 kts 179°
2026-05-05 17:54 56.16668 92.51943 947 ft 0 kts 292°
2026-05-05 17:54 56.16668 92.51942 946 ft 0 kts 292°
2026-05-05 17:54 56.16730 92.51681 947 ft 68 kts 292°
2026-05-05 17:54 56.17046 92.50360 947 ft 159 kts 292°
2026-05-05 17:55 56.17535 92.48443 1831 ft 175 kts 293°
2026-05-05 17:55 56.18033 92.46521 2969 ft 178 kts 288°
2026-05-05 17:55 56.18506 92.44428 3799 ft 192 kts 287°
2026-05-05 17:55 56.19038 92.42153 4616 ft 208 kts 288°
2026-05-05 17:56 56.19626 92.39697 5444 ft 224 kts 288°
2026-05-05 17:56 56.20245 92.37076 6291 ft 238 kts 288°
2026-05-05 17:56 56.20894 92.34315 7246 ft 247 kts 289°
2026-05-05 17:56 56.21558 92.31517 8343 ft 251 kts 290°
2026-05-05 17:57 56.22522 92.28816 9163 ft 271 kts 314°
2026-05-05 17:57 56.24197 92.27237 10218 ft 283 kts 342°
2026-05-05 17:57 56.26185 92.26684 11084 ft 298 kts 350°
2026-05-05 17:57 56.28290 92.26313 11816 ft 314 kts 351°
2026-05-05 17:58 56.30525 92.25919 12510 ft 330 kts 351°
2026-05-05 17:58 56.32863 92.25468 13198 ft 345 kts 350°
2026-05-05 17:58 56.35285 92.24945 13865 ft 359 kts 348°
2026-05-05 17:58 56.37700 92.23922 14721 ft 362 kts 338°
2026-05-05 17:59 56.39895 92.21780 15732 ft 361 kts 323°
2026-05-05 17:59 56.41878 92.19019 16669 ft 363 kts 319°
2026-05-05 17:59 56.43831 92.16099 17499 ft 369 kts 319°
2026-05-05 17:59 56.45832 92.13136 18283 ft 376 kts 320°
2026-05-05 18:00 56.47880 92.10171 19131 ft 381 kts 320°
2026-05-05 18:00 56.49944 92.07233 20051 ft 383 kts 321°
2026-05-05 18:00 56.52066 92.04237 20886 ft 387 kts 321°
2026-05-05 18:00 56.53484 92.02241 21361 ft 392 kts 321°
2026-05-05 18:02 56.64911 91.86119 25268 ft 409 kts 322°
2026-05-05 18:02 56.67126 91.82974 25913 ft 412 kts 322°
2026-05-05 18:02 56.69413 91.79720 26599 ft 414 kts 322°
2026-05-05 18:02 56.71673 91.76501 27311 ft 415 kts 321°
2026-05-05 18:03 56.73925 91.73288 28032 ft 415 kts 321°
2026-05-05 18:03 56.76237 91.69999 28566 ft 420 kts 322°
2026-05-05 18:03 56.78532 91.66800 29282 ft 419 kts 322°
2026-05-05 18:03 56.80834 91.63627 30018 ft 417 kts 322°
2026-05-05 18:04 56.83152 91.60442 30888 ft 411 kts 322°
2026-05-05 18:04 56.85429 91.57316 31756 ft 403 kts 322°
2026-05-05 18:04 56.87635 91.54277 32415 ft 399 kts 322°
2026-05-05 18:04 56.89865 91.51196 33037 ft 396 kts 322°
2026-05-05 18:05 56.92048 91.48170 33562 ft 395 kts 323°
2026-05-05 18:05 56.94258 91.45267 34046 ft 395 kts 326°
2026-05-05 18:05 56.96653 91.42670 34538 ft 394 kts 332°
2026-05-05 18:05 56.99188 91.40638 34859 ft 397 kts 338°
2026-05-05 18:06 57.01808 91.39202 35083 ft 402 kts 343°
2026-05-05 18:06 57.03674 91.38487 35243 ft 405 kts 347°
2026-05-05 18:06 57.07370 91.37405 35642 ft 407 kts 348°
2026-05-05 18:06 57.10156 91.36655 35908 ft 409 kts 348°
2026-05-05 18:07 57.12959 91.35876 36256 ft 411 kts 348°
2026-05-05 18:07 57.15781 91.35049 36667 ft 411 kts 348°
2026-05-05 18:07 57.18596 91.34187 37034 ft 412 kts 347°
2026-05-05 18:07 57.21413 91.33292 37538 ft 414 kts 347°
2026-05-05 18:08 57.24243 91.32371 37866 ft 414 kts 347°
2026-05-05 18:08 57.27068 91.31435 37977 ft 419 kts 346°
2026-05-05 18:08 57.29942 91.30471 37988 ft 426 kts 346°
2026-05-05 18:09 57.35841 91.28473 37985 ft 433 kts 346°
2026-05-05 18:09 57.41749 91.26466 37986 ft 433 kts 346°
2026-05-05 18:10 57.47666 91.24448 37983 ft 433 kts 347°
2026-05-05 18:10 57.53621 91.22408 37978 ft 433 kts 347°
2026-05-05 18:11 57.59536 91.20375 37975 ft 434 kts 346°
2026-05-05 18:11 57.61530 91.19688 37972 ft 435 kts 346°